Regional Weather Roundup
Issued by NWS Newport/Morehead, NC

Current Version | Previous Version | Graphics & Text | Print | Product List | Glossary Off
Versions: 1 2 3 4 5 6 7 8 9 10 11 12 13 14 15 16 17 18 19 20 21 22 23 24 25 26 27 28 29 30 31 32 33 34 35 36 37 38 39 40 41 42 43 44 45 46 47 48 49 50
000 ASUS42 KMHX 221422 RWRMHX WEATHER ROUNDUP FOR EASTERN NORTH CAROLINA NATIONAL WEATHER SERVICE NEWPORT/MOREHEAD CITY NC 1000 AM EDT MON SEP 22 2014 NOTE: "FAIR" INDICATES FEW OR NO CLOUDS BELOW 12,000 FEET WITH NO SIGNIFICANT WEATHER AND/OR OBSTRUCTIONS TO VISIBILITY NCZ015>017-031-032-045>047-102-103-221500- NORTH COAST CITY SKY/WX TMP DP RH WIND PRES REMARKS EDENTON MOSUNNY 74 58 57 N10G17 30.00R ELIZABETH CITY PTSUNNY 75 58 55 NW9 29.98R KITTY HAWK PTSUNNY 76 64 67 N8 29.97R MANTEO PTSUNNY 75 66 72 N8 29.99R $$ NCZ045>047-081-094-103-104-221500- CENTRAL COAST CITY SKY/WX TMP DP RH WIND PRES REMARKS FRISCO SUNNY 75 69 81 NW8 29.97R SWANQUARTER N/A 77 N/A N/A N6G14 29.94S $$ NCZ095-097-098-100-101-221500- SOUTHERN COAST CITY SKY/WX TMP DP RH WIND PRES REMARKS BEAUFORT SUNNY 78 63 59 N9 29.98R CEDAR ISLAND N/A 75 N/A N/A NW16 30.03R JACKSONVILLE SUNNY 77 58 51 N14 30.00R NEWPORT NOT AVBL PINEY ISLAND SUNNY 79 62 56 N14 29.98R WILMINGTON SUNNY 79 63 57 N10 30.00R $$ NCZ011>013-027>030-043-044-078>080-089-090>093-098-221500- COASTAL PLAIN CITY SKY/WX TMP DP RH WIND PRES REMARKS AHOSKIE SUNNY 71 53 52 N8 30.03R CLINTON CLOUDY 73 58 60 N7 30.04R ELIZABETHTOWN LGT RAIN 67 62 84 CALM 30.05R GOLDSBORO PTSUNNY 72 61 67 N10 30.01R GREENVILLE MOSUNNY 72 57 60 N5 30.03S HAVELOCK MOSUNNY 77 61 57 N14 30.00R KENANSVILLE PTSUNNY 73 54 51 N8 30.04R KINSTON MOSUNNY 75 57 53 N10 30.02R NEW BERN N/A N/A N/A N/A MISG 30.01R RICHLANDS SUNNY 75 57 53 N7 30.02R ROANOKE RAPIDS NOT AVBL ROCKY MOUNT PTSUNNY 72 52 49 N14G21 30.03R WASHINGTON MOSUNNY 72 60 66 NW8 30.01R WHITEVILLE CLOUDY 74 59 60 N5 30.04R $$ AMZ130-135-150-152-154-156-158-170-250-252-270-ANZ085-086-088-633-658-670-221500- MARINE OBSERVATIONS STATION/POSITION TIME TEMP WIND PRES WAVE SWELL AIR SEA DIR/SP/G HT/PER HT/PER (UTC) (F) (DEG/KT/KT) (MB) (FT/S) (FT/S) CHESAPEAKE LIGHT 1400 71 350/ 18/ 20 1015.8 BUOY 44014 1400 74 76 340/ 16/ 17 1014.1 5/ 9 3/ 9 DUCK 1400 74 74 340/ 15/ 17 1014.3 2E DUCK 1300 N/A 3/ 9 2/11 OREGON INLET 1400 75 75 330/ 11/ 14 1014.9 BUOY 44095 1400 74 N/A 4/ 9 20E OREGON INLET NOT AVBL HATTERAS CG NOT AVBL DIAMOND BUOY 1400 77 300/ 10/ 12 1014.6 6/ 6 5/ 6 CAPE LOOKOUT 1400 76 340/ 7/ 9 1015.2 BEAUFORT LAB 1400 76 75 360/ 12/ 16 1014.8 30 SE NEW RIVER 1400 77 82 330/ 12/ 14 1014.8 5/ 6 3/ 6 5 SE WRIGHTSVILL 1400 73 79 10/ 14/ 16 N/A BUOY 41002 1301 80 81 280/ 6/ 8 1018.0 4/ 7 3/ 7 BUOY 41004 1400 81 81 260/ 14/ 16 1016.1 4/ 5 2/ 8 $$

USA.gov is the U.S. government's official web portal to all federal, state and local government web resources and services.